VA6NA Weather Reports


time (UTC)temp
F
wind
direction
speed
knots
gust
knots
rain 1hr
in
rain 24hr
in
rain mn
in
humidity
%
barometer
mb
20260503034025 63 0.0 0.0 0.00 0.00 0.00 38 1012.2
20260503033020 64 0.0 0.0 0.00 0.00 0.00 38 1012.2
20260503032016 65 0.0 0.0 0.00 0.00 0.00 37 1012.3
20260503031103 65 0.0 0.0 0.00 0.00 0.00 37 1012.2
20260503030023 66 0.0 0.0 0.00 0.00 0.00 36 1012.3
20260503025025 67 0.0 0.0 0.00 0.00 0.00 35 1012.3
20260503024026 68 0.0 0.0 0.00 0.00 0.00 35 1012.3
20260503023021 68 0.0 0.0 0.00 0.00 0.00 34 1012.3
20260503022022 69 0.0 0.0 0.00 0.00 0.00 34 1012.3
20260503021018 69 0.0 0.0 0.00 0.00 0.00 34 1012.3
20260503020027 70 0.0 0.0 0.00 0.00 0.00 36 1012.4
20260503015023 70 0.0 0.0 0.00 0.00 0.00 36 1012.5
20260503014018 71 0.0 0.0 0.00 0.00 0.00 35 1012.6
20260503013025 71 0.0 0.0 0.00 0.00 0.00 36 1012.6
20260503012022 71 0.0 0.0 0.00 0.00 0.00 36 1012.6
20260503011028 71 0.0 0.0 0.00 0.00 0.00 36 1012.7
20260503010028 71 0.0 0.0 0.00 0.00 0.00 35 1012.8
20260503005029 73 0.0 0.0 0.00 0.00 0.00 34 1012.8
20260503004031 73 0.0 0.0 0.00 0.00 0.00 34 1013.1
20260503003031 74 0.0 0.0 0.00 0.00 0.00 34 1013.3
20260503002033 73 0.0 0.0 0.00 0.00 0.00 35 1013.4
20260503001016 72 0.0 0.0 0.00 0.00 0.00 35 1013.8
20260503000015 72 0.0 0.0 0.00 0.00 0.00 35 1014.0
20260502235017 73 0.0 0.0 0.00 0.00 0.00 34 1014.1
20260502234018 73 0.0 0.0 0.00 0.00 0.00 34 1014.2
20260502233026 73 0.0 0.0 0.00 0.00 0.00 35 1014.4
20260502232043 73 0.0 0.0 0.00 0.00 0.00 35 1014.7
20260502231037 73 0.0 0.0 0.00 0.00 0.00 34 1015.0
20260502230030 73 0.0 0.0 0.00 0.00 0.00 34 1015.2
20260502225032 73 0.0 0.0 0.00 0.00 0.00 34 1015.3
20260502224033 73 0.0 0.0 0.00 0.00 0.00 34 1015.5
20260502223028 74 0.0 0.0 0.00 0.00 0.00 34 1015.7
20260502222030 73 0.0 0.0 0.00 0.00 0.00 34 1015.8
20260502221025 72 0.0 0.0 0.00 0.00 0.00 35 1016.0
20260502220033 73 0.0 0.0 0.00 0.00 0.00 34 1016.3
20260502215016 72 0.0 0.0 0.00 0.00 0.00 34 1016.4
20260502214049 72 0.0 0.0 0.00 0.00 0.00 34 1016.6
20260502213049 72 0.0 0.0 0.00 0.00 0.00 34 1016.7
20260502212025 72 0.0 0.0 0.00 0.00 0.00 34 1016.9
20260502211021 73 0.0 0.0 0.00 0.00 0.00 34 1017.1
20260502210113 72 0.0 0.0 0.00 0.00 0.00 35 1017.1
20260502205017 72 0.0 0.0 0.00 0.00 0.00 34 1017.3
20260502204018 71 0.0 0.0 0.00 0.00 0.00 35 1017.7
20260502203031 72 0.0 0.0 0.00 0.00 0.00 35 1017.8
20260502202033 71 0.0 0.0 0.00 0.00 0.00 35 1017.9
20260502201048 70 0.0 0.0 0.00 0.00 0.00 35 1018.1
20260502200017 71 0.0 0.0 0.00 0.00 0.00 35 1018.3
20260502195019 70 0.0 0.0 0.00 0.00 0.00 36 1018.5
20260502194032 69 0.0 0.0 0.00 0.00 0.00 36 1018.7
20260502193026 70 0.0 0.0 0.00 0.00 0.00 36 1018.7
20260502192028 69 0.0 0.0 0.00 0.00 0.00 36 1018.8
20260502191024 69 0.0 0.0 0.00 0.00 0.00 37 1019.0
20260502190018 69 0.0 0.0 0.00 0.00 0.00 38 1019.2
20260502185020 68 0.0 0.0 0.00 0.00 0.00 38 1019.4
20260502184021 68 0.0 0.0 0.00 0.00 0.00 38 1019.6
20260502183017 68 0.0 0.0 0.00 0.00 0.00 38 1019.7
20260502182039 68 0.0 0.0 0.00 0.00 0.00 38 1019.8
20260502181032 67 0.0 0.0 0.00 0.00 0.00 39 1019.9
20260502164031 63 0.0 0.0 0.00 0.00 0.00 47 1021.1
20260502163032 63 0.0 0.0 0.00 0.00 0.00 47 1021.1
20260502162034 62 0.0 0.0 0.00 0.00 0.00 48 1021.1
20260502161016 62 0.0 0.0 0.00 0.00 0.00 48 1021.2
20260502152028 63 0.0 0.0 0.00 0.00 0.00 51 1021.7
20260502151049 60 0.0 0.0 0.00 0.00 0.00 54 1021.7
20260502150105 58 0.0 0.0 0.00 0.00 0.00 57 1021.9
20260502123016 42 0.0 0.0 0.00 0.00 0.00 81 1021.8
20260502122043 41 0.0 0.0 0.00 0.00 0.00 82 1021.7
20260502121023 40 0.0 0.0 0.00 0.00 0.00 83 1021.7
20260502115026 40 0.0 0.0 0.00 0.00 0.00 83 1021.5
20260502114022 41 0.0 0.0 0.00 0.00 0.00 82 1021.6
20260502113024 41 0.0 0.0 0.00 0.00 0.00 82 1021.7
20260502112026 41 0.0 0.0 0.00 0.00 0.00 81 1021.7
20260502111019 42 0.0 0.0 0.00 0.00 0.00 81 1021.5
20260502110020 42 0.0 0.0 0.00 0.00 0.00 81 1021.5
20260502105027 42 0.0 0.0 0.00 0.00 0.00 81 1021.5
20260502104022 43 0.0 0.0 0.00 0.00 0.00 81 1021.5
20260502103018 43 0.0 0.0 0.00 0.00 0.00 81 1021.5
20260502102020 43 0.0 0.0 0.00 0.00 0.00 81 1021.4
20260502101015 42 0.0 0.0 0.00 0.00 0.00 82 1021.3
20260502091027 41 0.0 0.0 0.00 0.00 0.00 84 1021.2
20260502071032 46 0.0 0.0 0.00 0.00 0.00 75 1020.9
20260502070032 47 0.0 0.0 0.00 0.00 0.00 74 1020.8
20260502065036 47 0.0 0.0 0.00 0.00 0.00 73 1020.8
20260502064016 48 0.0 0.0 0.00 0.00 0.00 73 1020.7
20260502063024 48 0.0 0.0 0.00 0.00 0.00 72 1020.6
20260502062020 49 0.0 0.0 0.00 0.00 0.00 72 1020.6
20260502061021 49 0.0 0.0 0.00 0.00 0.00 72 1020.7
20260502060019 49 0.0 0.0 0.00 0.00 0.00 72 1020.6
20260502055038 50 0.0 0.0 0.00 0.00 0.00 71 1020.5
20260502054020 51 0.0 0.0 0.00 0.00 0.00 69 1020.5
20260502053020 52 0.0 0.0 0.00 0.00 0.00 68 1020.4
20260502052022 53 0.0 0.0 0.00 0.00 0.00 67 1020.3
20260502051022 53 0.0 0.0 0.00 0.00 0.00 66 1020.3
20260502050024 53 0.0 0.0 0.00 0.00 0.00 65 1020.3
20260502045025 54 0.0 0.0 0.00 0.00 0.00 64 1020.1
20260502044025 54 0.0 0.0 0.00 0.00 0.00 64 1020.1
20260502043026 54 0.0 0.0 0.00 0.00 0.00 63 1020.0
20260502042022 54 0.0 0.0 0.00 0.00 0.00 62 1019.9
20260502041017 55 0.0 0.0 0.00 0.00 0.00 61 1019.9
20260502040119 55 0.0 0.0 0.00 0.00 0.00 60 1019.8
20260502035053 56 0.0 0.0 0.00 0.00 0.00 59 1019.8